TimeCDT,TemperatureF,Dew PointF,Humidity,Sea Level PressureIn,VisibilityMPH,Wind Direction,Wind SpeedMPH,Gust SpeedMPH,PrecipitationIn,Events,Conditions,WindDirDegrees,DateUTC
12:54 AM,68.0,66.0,93,29.88,10.0,Calm,Calm,-,0.00,,Mostly Cloudy,0,2013-09-20 05:54:00
1:54 AM,68.0,66.0,93,29.88,10.0,SSW,5.8,-,0.02,Rain,Light Rain,210,2013-09-20 06:54:00
2:08 AM,68.0,66.2,94,29.89,8.0,WSW,4.6,-,0.00,Rain,Light Rain,240,2013-09-20 07:08:00
2:15 AM,68.0,66.2,94,29.89,7.0,SW,4.6,-,0.01,Rain,Light Rain,230,2013-09-20 07:15:00
2:25 AM,68.0,66.2,94,29.89,7.0,SW,5.8,-,0.01,Rain,Light Rain,230,2013-09-20 07:25:00
2:37 AM,68.0,66.2,94,29.89,6.0,SSW,5.8,-,0.02,Rain,Light Rain,210,2013-09-20 07:37:00
2:54 AM,66.9,66.0,97,29.86,8.0,North,-9999.0,-,0.02,,Mostly Cloudy,0,2013-09-20 07:54:00
3:04 AM,66.2,66.2,100,29.87,8.0,South,8.1,-,N/A,,Mostly Cloudy,190,2013-09-20 08:04:00
3:12 AM,68.0,66.2,94,29.88,10.0,SSW,8.1,-,N/A,,Scattered Clouds,200,2013-09-20 08:12:00
3:54 AM,66.9,66.0,97,29.86,9.0,SW,6.9,-,N/A,,Scattered Clouds,220,2013-09-20 08:54:00
4:19 AM,68.0,66.2,94,29.88,10.0,SSW,6.9,-,N/A,,Mostly Cloudy,210,2013-09-20 09:19:00
4:34 AM,68.0,66.2,94,29.89,10.0,SW,6.9,-,N/A,,Overcast,220,2013-09-20 09:34:00
4:46 AM,68.0,66.2,94,29.88,10.0,SW,6.9,-,N/A,,Overcast,220,2013-09-20 09:46:00
4:54 AM,68.0,66.0,93,29.86,10.0,WSW,8.1,-,N/A,,Overcast,240,2013-09-20 09:54:00
5:54 AM,68.0,66.0,93,29.86,2.5,SSW,6.9,-,0.00,Rain,Light Rain,210,2013-09-20 10:54:00
6:07 AM,68.0,66.2,94,29.89,3.0,SW,5.8,-,0.00,Rain,Light Rain,230,2013-09-20 11:07:00
6:19 AM,68.0,66.2,94,29.89,2.5,WSW,6.9,-,0.01,Rain,Light Rain,240,2013-09-20 11:19:00
6:51 AM,68.0,66.2,94,29.90,5.0,West,6.9,-,0.02,Rain,Light Rain,270,2013-09-20 11:51:00
6:54 AM,68.0,66.0,93,29.88,6.0,West,6.9,-,0.02,Rain,Light Rain,270,2013-09-20 11:54:00
7:03 AM,68.0,66.2,94,29.90,9.0,West,6.9,-,0.00,,Overcast,280,2013-09-20 12:03:00
7:40 AM,68.0,66.2,94,29.91,10.0,WNW,6.9,-,0.00,,Overcast,300,2013-09-20 12:40:00
7:54 AM,68.0,66.0,93,29.89,9.0,WNW,6.9,-,0.00,,Overcast,300,2013-09-20 12:54:00
8:04 AM,68.0,66.2,94,29.91,9.0,WNW,9.2,-,N/A,,Overcast,300,2013-09-20 13:04:00
8:36 AM,66.2,64.4,94,29.92,9.0,NW,9.2,-,N/A,,Overcast,320,2013-09-20 13:36:00
8:54 AM,66.9,64.0,90,29.90,10.0,NW,11.5,-,N/A,,Overcast,320,2013-09-20 13:54:00
9:14 AM,64.4,60.8,88,29.93,10.0,NW,12.7,-,0.01,,Overcast,310,2013-09-20 14:14:00
9:26 AM,64.4,60.8,88,29.93,10.0,NW,9.2,-,0.01,,Overcast,320,2013-09-20 14:26:00
9:54 AM,63.0,59.0,87,29.94,10.0,NNW,11.5,-,0.01,,Overcast,330,2013-09-20 14:54:00
10:22 AM,64.4,57.2,77,29.94,10.0,NNW,10.4,-,N/A,,Mostly Cloudy,340,2013-09-20 15:22:00
10:54 AM,64.9,57.9,78,29.94,10.0,NW,11.5,-,N/A,,Partly Cloudy,320,2013-09-20 15:54:00
11:54 AM,66.9,55.9,68,29.94,10.0,NW,10.4,-,N/A,,Clear,320,2013-09-20 16:54:00
12:54 PM,68.0,53.1,59,29.94,10.0,NNW,12.7,-,N/A,,Clear,330,2013-09-20 17:54:00
1:54 PM,68.0,54.0,61,29.92,10.0,NW,10.4,-,N/A,,Clear,320,2013-09-20 18:54:00
2:54 PM,69.1,52.0,54,29.91,10.0,WNW,9.2,-,N/A,,Clear,300,2013-09-20 19:54:00
3:54 PM,72.0,52.0,49,29.89,10.0,WNW,10.4,17.3,N/A,,Clear,300,2013-09-20 20:54:00
4:54 PM,71.1,48.0,44,29.89,10.0,WNW,16.1,-,N/A,,Clear,300,2013-09-20 21:54:00
5:54 PM,66.9,48.0,51,29.90,10.0,NW,12.7,-,N/A,,Clear,320,2013-09-20 22:54:00
6:54 PM,63.0,48.9,60,29.91,10.0,NW,3.5,-,N/A,,Clear,310,2013-09-20 23:54:00
7:54 PM,62.1,50.0,65,29.91,10.0,Calm,Calm,-,N/A,,Clear,0,2013-09-21 00:54:00
8:54 PM,60.1,52.0,75,29.92,10.0,WNW,3.5,-,N/A,,Clear,290,2013-09-21 01:54:00
9:54 PM,57.0,50.0,77,29.94,10.0,NNW,5.8,-,N/A,,Clear,330,2013-09-21 02:54:00
10:54 PM,57.0,51.1,81,29.94,10.0,Calm,Calm,-,N/A,,Clear,0,2013-09-21 03:54:00
11:54 PM,55.0,51.1,86,29.93,10.0,WNW,3.5,-,N/A,,Clear,300,2013-09-21 04:54:00